Hourly Weather Bolshoe Zamoshe

Today, 24 July, Saturday

Time Temperature Precipitation Wind Pressure Humidity
00:00 +16°C° 0 mm 3 mps 745 mmHg 90%
01:00 +15°C° 0 mm 2 mps 746 mmHg 90%
02:00 +15°C° 0 mm 2 mps 746 mmHg 90%
03:00 +15°C° 0 mm 2 mps 746 mmHg 89%
04:00 +15°C° 0 mm 2 mps 746 mmHg 89%
05:00 +15°C° 0 mm 2 mps 746 mmHg 89%
06:00 +16°C° 0 mm 2 mps 746 mmHg 81%
07:00 +18°C° 0 mm 2 mps 746 mmHg 73%
08:00 +19°C° 0 mm 2 mps 747 mmHg 67%
09:00 +20°C° 0 mm 2 mps 747 mmHg 62%
10:00 +23°C° 0 mm 2 mps 747 mmHg 56%
11:00 +24°C° 0 mm 2 mps 747 mmHg 51%
12:00 +24°C° 0 mm 2 mps 747 mmHg 48%
13:00 +25°C° 0 mm 2 mps 747 mmHg 46%
14:00 +25°C° 0 mm 2 mps 747 mmHg 43%
15:00 +25°C° 0 mm 2 mps 747 mmHg 44%
16:00 +25°C° 0 mm 1 mps 748 mmHg 44%
17:00 +25°C° 0 mm 1 mps 748 mmHg 45%
18:00 +23°C° 0 mm 2 mps 748 mmHg 51%
19:00 +21°C° 0 mm 2 mps 748 mmHg 57%
20:00 +19°C° 0 mm 2 mps 748 mmHg 62%
21:00 +19°C° 0 mm 2 mps 748 mmHg 63%
22:00 +18°C° 0 mm 2 mps 749 mmHg 64%
23:00 +17°C° 0 mm 2 mps 749 mmHg 64%

Tomorrow, 25 July, Sunday

Time Temperature Precipitation Wind Pressure Humidity
00:00 +17°C° 0 mm 2 mps 749 mmHg 67%
01:00 +16°C° 0 mm 2 mps 749 mmHg 69%
02:00 +16°C° 0 mm 2 mps 749 mmHg 71%
03:00 +16°C° 0 mm 2 mps 750 mmHg 73%
04:00 +15°C° 0 mm 2 mps 750 mmHg 76%
05:00 +15°C° 0 mm 2 mps 750 mmHg 78%
06:00 +17°C° 0 mm 2 mps 750 mmHg 72%
07:00 +19°C° 0 mm 2 mps 750 mmHg 66%
08:00 +21°C° 0 mm 2 mps 750 mmHg 60%
09:00 +23°C° 0 mm 2 mps 750 mmHg 55%
10:00 +25°C° 0 mm 2 mps 751 mmHg 50%
11:00 +26°C° 0 mm 3 mps 751 mmHg 44%
12:00 +27°C° 0 mm 3 mps 751 mmHg 44%
13:00 +27°C° 0 mm 3 mps 751 mmHg 43%
14:00 +28°C° 0 mm 2 mps 751 mmHg 42%
15:00 +27°C° 0 mm 2 mps 750 mmHg 45%
16:00 +27°C° 0 mm 2 mps 750 mmHg 48%
17:00 +26°C° 0 mm 2 mps 750 mmHg 51%
18:00 +25°C° 0 mm 2 mps 751 mmHg 55%
19:00 +24°C° 0 mm 2 mps 751 mmHg 59%
20:00 +23°C° 0 mm 2 mps 751 mmHg 63%
21:00 +21°C° 0 mm 2 mps 751 mmHg 65%
22:00 +21°C° 0 mm 2 mps 751 mmHg 67%
23:00 +20°C° 0 mm 2 mps 752 mmHg 69%

Day after tomorrow, 26 July, Monday

Time Temperature Precipitation Wind Pressure Humidity
00:00 +20°C° 0 mm 2 mps 752 mmHg 71%
01:00 +19°C° 0 mm 2 mps 752 mmHg 73%
02:00 +19°C° 0 mm 2 mps 752 mmHg 76%
03:00 +18°C° 0 mm 2 mps 752 mmHg 78%
04:00 +18°C° 0 mm 2 mps 752 mmHg 80%
05:00 +18°C° 0 mm 2 mps 752 mmHg 82%
06:00 +19°C° 0 mm 2 mps 752 mmHg 76%
07:00 +21°C° 0 mm 2 mps 753 mmHg 71%
08:00 +24°C° 0 mm 2 mps 753 mmHg 65%
09:00 +25°C° 0 mm 2 mps 753 mmHg 60%
10:00 +26°C° 0 mm 2 mps 753 mmHg 55%
11:00 +27°C° 0 mm 2 mps 753 mmHg 51%
12:00 +28°C° 0 mm 2 mps 753 mmHg 49%
13:00 +28°C° 0 mm 2 mps 752 mmHg 46%
14:00 +29°C° 0 mm 2 mps 752 mmHg 44%
15:00 +28°C° 0 mm 2 mps 752 mmHg 49%
16:00 +26°C° 0 mm 3 mps 752 mmHg 55%
17:00 +25°C° 0 mm 3 mps 752 mmHg 60%
18:00 +24°C° 0 mm 3 mps 752 mmHg 62%
19:00 +23°C° 0 mm 2 mps 752 mmHg 64%
20:00 +21°C° 0 mm 2 mps 752 mmHg 67%
21:00 +21°C° 0 mm 2 mps 752 mmHg 68%
22:00 +21°C° 0 mm 2 mps 752 mmHg 70%
23:00 +20°C° 0 mm 2 mps 752 mmHg 72%

27 July, Tuesday

Time Temperature Precipitation Wind Pressure Humidity
00:00 +19°C° 0 mm 2 mps 752 mmHg 76%
01:00 +19°C° 0 mm 2 mps 752 mmHg 81%
02:00 +18°C° 0 mm 2 mps 752 mmHg 85%
03:00 +18°C° 0 mm 2 mps 752 mmHg 85%
04:00 +17°C° 0 mm 2 mps 752 mmHg 85%
05:00 +17°C° 0 mm 2 mps 752 mmHg 85%
06:00 +19°C° 0 mm 3 mps 752 mmHg 78%
07:00 +21°C° 0 mm 3 mps 752 mmHg 70%
08:00 +24°C° 0 mm 3 mps 752 mmHg 63%
09:00 +26°C° 0 mm 3 mps 752 mmHg 57%
10:00 +27°C° 0 mm 4 mps 752 mmHg 51%
11:00 +29°C° 0 mm 4 mps 752 mmHg 46%
12:00 +29°C° 0 mm 4 mps 751 mmHg 43%
13:00 +30°C° 0 mm 4 mps 751 mmHg 41%
14:00 +30°C° 0 mm 4 mps 751 mmHg 39%
15:00 +30°C° 0 mm 4 mps 750 mmHg 40%
16:00 +30°C° 0 mm 3 mps 750 mmHg 42%
17:00 +30°C° 0 mm 3 mps 750 mmHg 43%
18:00 +28°C° 0 mm 3 mps 750 mmHg 47%
19:00 +27°C° 0 mm 3 mps 749 mmHg 50%
20:00 +25°C° 0 mm 3 mps 749 mmHg 54%
21:00 +25°C° 0 mm 3 mps 749 mmHg 54%
22:00 +23°C° 0 mm 4 mps 749 mmHg 54%
23:00 +23°C° 0 mm 4 mps 749 mmHg 54%

28 July, Wednesday

Time Temperature Precipitation Wind Pressure Humidity
00:00 +22°C° 0.1 mm 4 mps 749 mmHg 60%
01:00 +21°C° 0.1 mm 3 mps 748 mmHg 65%
02:00 +20°C° 0.1 mm 3 mps 748 mmHg 71%
03:00 +20°C° 0.1 mm 3 mps 748 mmHg 71%
04:00 +20°C° 0.1 mm 3 mps 748 mmHg 72%
05:00 +20°C° 0.1 mm 3 mps 747 mmHg 73%
06:00 +20°C° 0 mm 4 mps 747 mmHg 73%
07:00 +21°C° 0 mm 4 mps 747 mmHg 74%
08:00 +22°C° 0 mm 5 mps 747 mmHg 74%
09:00 +22°C° 0.7 mm 5 mps 747 mmHg 78%
10:00 +22°C° 0.7 mm 5 mps 746 mmHg 81%
11:00 +21°C° 0.7 mm 5 mps 746 mmHg 85%
12:00 +21°C° 2.2 mm 5 mps 746 mmHg 89%
13:00 +20°C° 2.2 mm 5 mps 746 mmHg 92%
14:00 +20°C° 2.2 mm 5 mps 746 mmHg 96%
15:00 +20°C° 0.4 mm 5 mps 746 mmHg 95%
16:00 +20°C° 0.4 mm 4 mps 746 mmHg 95%
17:00 +20°C° 0.4 mm 4 mps 745 mmHg 95%
18:00 +20°C° 0 mm 4 mps 745 mmHg 95%
19:00 +20°C° 0 mm 3 mps 745 mmHg 96%
20:00 +20°C° 0 mm 2 mps 745 mmHg 96%
21:00 +19°C° 0 mm 2 mps 745 mmHg 96%
22:00 +19°C° 0 mm 2 mps 744 mmHg 96%
23:00 +19°C° 0 mm 2 mps 744 mmHg 97%

29 July, Thursday

Time Temperature Precipitation Wind Pressure Humidity
00:00 +19°C° 0 mm 2 mps 744 mmHg 96%
01:00 +18°C° 0 mm 2 mps 744 mmHg 96%
02:00 +18°C° 0 mm 2 mps 744 mmHg 95%
03:00 +18°C° 0 mm 2 mps 744 mmHg 95%
04:00 +18°C° 0 mm 2 mps 744 mmHg 95%
05:00 +18°C° 0 mm 2 mps 744 mmHg 94%
06:00 +19°C° 0 mm 2 mps 744 mmHg 89%
07:00 +21°C° 0 mm 3 mps 744 mmHg 84%
08:00 +24°C° 0 mm 3 mps 744 mmHg 78%
09:00 +25°C° 0 mm 3 mps 744 mmHg 69%
10:00 +27°C° 0 mm 4 mps 744 mmHg 61%
11:00 +29°C° 0 mm 4 mps 744 mmHg 52%
12:00 +29°C° 0 mm 4 mps 744 mmHg 50%
13:00 +30°C° 0 mm 4 mps 744 mmHg 49%
14:00 +30°C° 0 mm 4 mps 744 mmHg 48%
15:00 +29°C° 0 mm 4 mps 744 mmHg 52%
16:00 +29°C° 0 mm 4 mps 744 mmHg 56%
17:00 +28°C° 0 mm 4 mps 744 mmHg 60%
18:00 +26°C° 0 mm 3 mps 744 mmHg 64%
19:00 +25°C° 0 mm 3 mps 744 mmHg 68%
20:00 +22°C° 0 mm 3 mps 744 mmHg 73%
21:00 +21°C° 0 mm 3 mps 744 mmHg 77%
22:00 +20°C° 0 mm 3 mps 745 mmHg 80%
23:00 +19°C° 0 mm 3 mps 745 mmHg 84%
Show more

We Need Your Consent

Meteoprog and our Service Providers may store and access personal data such as cookies, device identifiers or other similar technologies on your device and process such data to personalise content and ads, as well as provide social media features and to analyse the traffic.

  • Store and/or access information on your device

    Cookies, device identifiers or other information can be stored or accessed on your device for the purposes indicated above.

  • Personalised ads and content, ad and content measurement, audience insights, and products development

    Ads and content can be personalised based on a profile. More data can be added to better personalise ads and content. Ad and content performance can be measured. Insights about the audience who saw the ads and content can be derived. Such data can be used to develop or improve user’s experience, systems and software.

By clicking ‘I Agree’ you will allow the use of indicated cookies, device identifiers, web beacons or other similar technologies. Your settings can be changed in the browser on your device.

For certain purposes, legitimate interests may be relied on, rather than consent. You can read more about this in our Privacy and Cookie Policy.